COSMOS 1860 FUEL CORE, 18241

Orbit data source: Space-Track

COSMOS 1860 FUEL CORE, 18241 is space debris in LEO originally from a launch on Thu, 18 Jun 1987 UTC launched from the Tyuratam Missile And Space Complex (TTMTR). Debris objects in space refer to the collection of defunct objects orbiting the Earth. Examples of debris include non-operational satellites, rocket bodies, and fragments generated from explosions, collisions, or faulty payload assembly.

Loading next visibility...
Identifier
18241, 1987-052D
Orbit
LEO
Country
Flag of CISCIS
Related business
Manufacturer
Kometa
Mission
Spacecraft
Bus & Motor
US-A CORE, Unknown motor
Mass
Wet unknown, 53 kg dry
Launch date (UTC)
1987-06-18 (39 years ago)
Launch vehicle
Unknown
Launch site
Tyuratam Missile And Space Complex (TTMTR)
Object type
Payload
Rocket body
Debris
Shape & HBR
Unknown
Radar Cross Section
Medium (>0.1 m² and <1 m²)

Expand to show TLE details & history
Last TLE update: 2 days ago

TLE from 2 days ago
0 COSMOS 1860 FUEL CORE
1 18241U 87052D   26171.44699507 -.00000083  00000-0  57640-5 0  9998
2 18241  65.0080 121.3320 0028903 169.3493 282.4806 13.88978787639077
Epoch: 2026-06-20T10:43Z
TLE epoch observation values (Epoch: 2026-06-20T10:43:40.374Z)
Latitude
65.08032°
Longitude
145.3178°
Altitude
937.957 km
Speed
7.392 km/s
True Right ascension
14h 19m 35s
True Declination
64° 57' 07"
Sunlit
Object was in daylight at epoch
Visualization orbit readout
Latitude
Unknown
Longitude
Unknown
Altitude
Unknown
Speed
Unknown
Apparent Right ascension
Unknown
Apparent Declination
Unknown
Sunlit
N/A
Visualization observer readout
Local Sidereal Time
00:37:46
Azimuth
Unknown
Elevation
Unknown
Doppler factor
Unknown
Orbital elements
Apogee altitude
951.942 km
Perigee altitude
909.692 km
Semi-major axis
7,308.954 km
Eccentricity
0.00289
Inclination
65.008°
RAAN
121.332°
Arg. of periapsis
169.3493°
True anomaly
282.15697°
Mean anomaly
282.4806°
Eccentric anomaly
282.31881°
Mean motion
3.47344 °/min
Orbital period
103.64 mins
BSTAR
0.000005764
Loading maneuver chart data...
Computing Atmospheric mass density...
Loading historical data...
Loading historical data...
Loading historical data...
Loading historical data...
Loading historical data...
Loading historical data...
Loading historical data...

Documentation

Showing up to 5 results
|